Hourly Weather Kizlyar

Today, 25 July, Sunday

Time Temperature Precipitation Wind Pressure Humidity
00:00 +25°C° 0 mm 2 mps 759 mmHg 71%
01:00 +25°C° 0 mm 2 mps 759 mmHg 72%
02:00 +24°C° 0 mm 2 mps 759 mmHg 73%
03:00 +24°C° 0 mm 1 mps 759 mmHg 76%
04:00 +25°C° 0 mm 2 mps 759 mmHg 74%
05:00 +25°C° 0 mm 2 mps 760 mmHg 72%
06:00 +26°C° 0 mm 2 mps 760 mmHg 70%
07:00 +28°C° 0 mm 3 mps 760 mmHg 60%
08:00 +29°C° 0 mm 3 mps 760 mmHg 51%
09:00 +32°C° 0 mm 4 mps 760 mmHg 38%
10:00 +34°C° 0 mm 5 mps 760 mmHg 34%
11:00 +35°C° 0 mm 6 mps 760 mmHg 30%
12:00 +36°C° 0 mm 6 mps 760 mmHg 27%
13:00 +36°C° 0 mm 7 mps 760 mmHg 27%
14:00 +36°C° 0 mm 7 mps 760 mmHg 27%
15:00 +37°C° 0 mm 8 mps 760 mmHg 27%
16:00 +35°C° 0 mm 7 mps 760 mmHg 28%
17:00 +34°C° 0 mm 6 mps 760 mmHg 29%
18:00 +34°C° 0 mm 6 mps 760 mmHg 30%
19:00 +30°C° 0 mm 5 mps 761 mmHg 36%
20:00 +28°C° 0 mm 4 mps 761 mmHg 42%
21:00 +26°C° 0 mm 3 mps 761 mmHg 48%
22:00 +25°C° 0 mm 2 mps 761 mmHg 52%
23:00 +25°C° 0 mm 2 mps 761 mmHg 56%

Tomorrow, 26 July, Monday

Time Temperature Precipitation Wind Pressure Humidity
00:00 +24°C° 0 mm 2 mps 761 mmHg 60%
01:00 +24°C° 0 mm 2 mps 761 mmHg 64%
02:00 +24°C° 0 mm 2 mps 761 mmHg 69%
03:00 +23°C° 0 mm 2 mps 761 mmHg 73%
04:00 +25°C° 0 mm 2 mps 761 mmHg 71%
05:00 +26°C° 0 mm 2 mps 761 mmHg 69%
06:00 +27°C° 0 mm 2 mps 761 mmHg 66%
07:00 +29°C° 0.1 mm 3 mps 761 mmHg 55%
08:00 +33°C° 0.1 mm 4 mps 761 mmHg 44%
09:00 +35°C° 0.1 mm 5 mps 761 mmHg 33%
10:00 +36°C° 0.2 mm 6 mps 760 mmHg 31%
11:00 +36°C° 0.2 mm 7 mps 760 mmHg 30%
12:00 +38°C° 0.2 mm 8 mps 760 mmHg 29%
13:00 +38°C° 0 mm 8 mps 760 mmHg 27%
14:00 +39°C° 0 mm 8 mps 759 mmHg 25%
15:00 +39°C° 0 mm 9 mps 759 mmHg 23%
16:00 +37°C° 0 mm 8 mps 759 mmHg 27%
17:00 +35°C° 0 mm 8 mps 759 mmHg 32%
18:00 +33°C° 0 mm 8 mps 760 mmHg 37%
19:00 +32°C° 0.1 mm 6 mps 760 mmHg 44%
20:00 +29°C° 0.1 mm 5 mps 761 mmHg 52%
21:00 +27°C° 0.1 mm 4 mps 761 mmHg 59%
22:00 +27°C° 0 mm 4 mps 761 mmHg 60%
23:00 +27°C° 0 mm 3 mps 761 mmHg 60%

Day after tomorrow, 27 July, Tuesday

Time Temperature Precipitation Wind Pressure Humidity
00:00 +27°C° 0 mm 3 mps 761 mmHg 61%
01:00 +27°C° 0 mm 3 mps 761 mmHg 63%
02:00 +26°C° 0 mm 2 mps 761 mmHg 66%
03:00 +26°C° 0 mm 2 mps 761 mmHg 68%
04:00 +26°C° 0 mm 2 mps 761 mmHg 67%
05:00 +26°C° 0 mm 2 mps 761 mmHg 66%
06:00 +27°C° 0 mm 2 mps 761 mmHg 65%
07:00 +29°C° 0 mm 4 mps 761 mmHg 55%
08:00 +32°C° 0 mm 6 mps 761 mmHg 44%
09:00 +34°C° 0 mm 7 mps 760 mmHg 33%
10:00 +34°C° 0 mm 8 mps 760 mmHg 31%
11:00 +35°C° 0 mm 9 mps 760 mmHg 29%
12:00 +35°C° 0 mm 9 mps 760 mmHg 27%
13:00 +35°C° 0 mm 9 mps 760 mmHg 30%
14:00 +34°C° 0 mm 9 mps 760 mmHg 32%
15:00 +33°C° 0 mm 9 mps 760 mmHg 35%
16:00 +32°C° 0.1 mm 8 mps 760 mmHg 38%
17:00 +29°C° 0.1 mm 8 mps 760 mmHg 41%
18:00 +28°C° 0.1 mm 7 mps 761 mmHg 44%
19:00 +28°C° 0 mm 5 mps 761 mmHg 45%
20:00 +27°C° 0 mm 4 mps 761 mmHg 46%
21:00 +26°C° 0 mm 2 mps 762 mmHg 47%
22:00 +26°C° 0 mm 2 mps 762 mmHg 48%
23:00 +26°C° 0 mm 2 mps 762 mmHg 48%

28 July, Wednesday

Time Temperature Precipitation Wind Pressure Humidity
00:00 +26°C° 0 mm 1 mps 762 mmHg 48%
01:00 +25°C° 0.1 mm 2 mps 762 mmHg 54%
02:00 +24°C° 0.1 mm 3 mps 762 mmHg 59%
03:00 +22°C° 0.1 mm 4 mps 762 mmHg 65%
04:00 +21°C° 0.2 mm 4 mps 762 mmHg 66%
05:00 +20°C° 0.2 mm 4 mps 763 mmHg 67%
06:00 +20°C° 0.2 mm 5 mps 763 mmHg 68%
07:00 +20°C° 0 mm 4 mps 763 mmHg 66%
08:00 +21°C° 0 mm 4 mps 763 mmHg 63%
09:00 +21°C° 0 mm 4 mps 763 mmHg 61%
10:00 +22°C° 0 mm 4 mps 763 mmHg 57%
11:00 +23°C° 0 mm 4 mps 763 mmHg 52%
12:00 +25°C° 0 mm 4 mps 763 mmHg 48%
13:00 +26°C° 0 mm 3 mps 763 mmHg 43%
14:00 +28°C° 0 mm 3 mps 762 mmHg 37%
15:00 +29°C° 0 mm 3 mps 762 mmHg 32%
16:00 +30°C° 0 mm 3 mps 762 mmHg 30%
17:00 +30°C° 0 mm 3 mps 762 mmHg 28%
18:00 +30°C° 0 mm 3 mps 761 mmHg 27%
19:00 +28°C° 0 mm 3 mps 762 mmHg 33%
20:00 +25°C° 0 mm 3 mps 762 mmHg 39%
21:00 +22°C° 0 mm 3 mps 762 mmHg 45%
22:00 +21°C° 0 mm 3 mps 762 mmHg 47%
23:00 +21°C° 0 mm 3 mps 762 mmHg 49%

29 July, Thursday

Time Temperature Precipitation Wind Pressure Humidity
00:00 +20°C° 0 mm 2 mps 761 mmHg 51%
01:00 +20°C° 0 mm 2 mps 761 mmHg 52%
02:00 +21°C° 0 mm 1 mps 761 mmHg 54%
03:00 +20°C° 0 mm 1 mps 761 mmHg 56%
04:00 +21°C° 0 mm 1 mps 761 mmHg 53%
05:00 +22°C° 0 mm 1 mps 761 mmHg 50%
06:00 +23°C° 0 mm 1 mps 761 mmHg 47%
07:00 +26°C° 0 mm 1 mps 761 mmHg 40%
08:00 +28°C° 0 mm 2 mps 760 mmHg 33%
09:00 +31°C° 0 mm 2 mps 760 mmHg 26%
10:00 +34°C° 0 mm 3 mps 760 mmHg 23%
11:00 +35°C° 0 mm 4 mps 759 mmHg 20%
12:00 +36°C° 0 mm 5 mps 759 mmHg 17%
13:00 +36°C° 0 mm 6 mps 759 mmHg 17%
14:00 +36°C° 0 mm 6 mps 758 mmHg 17%
15:00 +36°C° 0 mm 7 mps 758 mmHg 18%
16:00 +35°C° 0 mm 7 mps 758 mmHg 19%
17:00 +34°C° 0 mm 6 mps 758 mmHg 21%
18:00 +32°C° 0 mm 6 mps 759 mmHg 23%
19:00 +29°C° 0 mm 5 mps 759 mmHg 34%
20:00 +26°C° 0 mm 4 mps 759 mmHg 45%
21:00 +22°C° 0 mm 3 mps 759 mmHg 56%
22:00 +21°C° 0 mm 3 mps 759 mmHg 61%
23:00 +21°C° 0 mm 3 mps 759 mmHg 67%

30 July, Friday

Time Temperature Precipitation Wind Pressure Humidity
00:00 +20°C° 0 mm 3 mps 759 mmHg 72%
01:00 +20°C° 0 mm 3 mps 758 mmHg 75%
02:00 +20°C° 0 mm 3 mps 758 mmHg 77%
03:00 +20°C° 0 mm 3 mps 758 mmHg 80%
04:00 +20°C° 0 mm 2 mps 758 mmHg 76%
05:00 +21°C° 0 mm 2 mps 758 mmHg 73%
06:00 +23°C° 0 mm 2 mps 759 mmHg 69%
07:00 +26°C° 0 mm 2 mps 759 mmHg 57%
08:00 +29°C° 0 mm 3 mps 759 mmHg 45%
09:00 +33°C° 0 mm 4 mps 759 mmHg 33%
10:00 +34°C° 0 mm 4 mps 758 mmHg 29%
11:00 +36°C° 0 mm 5 mps 758 mmHg 26%
12:00 +37°C° 0 mm 5 mps 757 mmHg 22%
13:00 +38°C° 0 mm 6 mps 757 mmHg 22%
14:00 +38°C° 0 mm 6 mps 757 mmHg 21%
15:00 +38°C° 0 mm 7 mps 757 mmHg 21%
16:00 +36°C° 0 mm 7 mps 757 mmHg 24%
17:00 +34°C° 0 mm 6 mps 757 mmHg 26%
18:00 +33°C° 0 mm 6 mps 757 mmHg 29%
19:00 +29°C° 0 mm 5 mps 757 mmHg 40%
20:00 +27°C° 0 mm 4 mps 758 mmHg 50%
21:00 +24°C° 0 mm 3 mps 758 mmHg 61%
22:00 +22°C° 0 mm 3 mps 758 mmHg 66%
23:00 +22°C° 0 mm 3 mps 758 mmHg 70%
Show more